Location: Bacharowice
(49.9333°N, 19.5833°E)
Time: 21:57:05
(UTC+00:00)

Envisat - Pass Details

Date: 07 October 2022
Orbit: 763 x 765 km, 98.2° (Epoch: 06 December)

Event Time Altitude Azimuth Distance (km) Brightness Sun altitude
Rises 01:28:41 0° 31° (NNE) 3,245 7.2 -31.8°
Reaches altitude 10° 01:32:38 10° 62° (ENE) 2,311 6.4 -31.3°
Maximum altitude 01:34:34 12° 85° (E) 2,168 6.0 -31.0°
Drops below altitude 10° 01:36:29 10° 107° (ESE) 2,304 5.9 -30.8°
Sets 01:40:24 0° 138° (SE) 3,223 6.4 -30.3°
